Regional Weather Roundup
Issued by NWS

Home | Current Version | Previous Version | Text Only | Print | Product List | Glossary Off
Versions: 1 2 3 4 5 6 7 8 9 10 11 12 13 14 15 16 17 18 19 20 21 22 23 24 25 26 27 28 29 30 31 32 33 34 35 36 37 38 39 40 41 42 43 44 45 46 47 48 49 50

000
ASUS45 KSLC 022010
RWRUT

UTAH REGIONAL WEATHER ROUNDUP
NATIONAL WEATHER SERVICE SALT LAKE CITY UT
100 PM MST MON MAR 02 2015

UTZ001>011-023>025-022100-

NORTHERN UTAH

CITY           SKY/WX    TMP DP  RH WIND       PRES   REMARKS
BRIGHAM CITY   CLOUDY    42  29  58 N6        29.69F
DUGWAY         DRIZZLE   33  33  96 NW7       29.72  FOG     WCI  27
HILL AFB       CLOUDY    39  28  62 E14       29.67F WCI  31
LOGAN          PTSUNNY   40  24  53 NE5       29.70F
OGDEN          CLOUDY    42  29  59 E6        29.67F
PROVO AIRPORT  PTSUNNY   37  34  87 S5        29.73  WCI  34
SALT LAKE CITY CLOUDY    41  34  76 SW9       29.68F
VERNAL         LGT SNOW  34  32  92 CALM      29.70F FOG
WENDOVER       CLOUDY    37  27  65 S6        29.73F WCI  33
HEBER CITY     LGT SNOW  32  32 100 CALM      29.70F
WEST JORDAN    PTSUNNY   39  37  93 S12       29.69F WCI  32

$$

UTZ012>022-026-027-022100-

SOUTHERN/CENTRAL UTAH

CITY           SKY/WX    TMP DP  RH WIND       PRES   REMARKS
BLANDING       CLOUDY    42  37  84 S6        29.82F
BRYCE CANYON   SNOW      30  29  96 SE7       29.75F VSB 1/2 WCI  23
CEDAR CITY     CLOUDY    34  32  92 SW14      29.70F WCI  25
DELTA          CLOUDY    39  37  91 S12       29.71F WCI  32
HANKSVILLE     CLOUDY    36  36 100 W7        29.74F WCI  30
MILFORD        MIX PCPN  35  32  88 S16       29.72S WCI  25
MOAB/CYNLANDS  CLOUDY    45  41  86 NW21G26   29.64F
PRICE          SNOW      34  32  92 CALM      29.69F VSB 1/4
ST GEORGE      CLOUDY    46  37  71 S9        29.79F
KANAB          CLOUDY    32  32 100 CALM      29.82F

$$

REGIONAL REPORTS     COLORADO/ARIZONA

CITY           SKY/WX    TMP DP  RH WIND       PRES   REMARKS
CRAIG, CO      CLOUDY    42  35  76 NE9       29.70F
GRAND JUNCTION PTSUNNY   57  38  48 S18       29.67F
RIFLE          CLOUDY    39  36  89 E7        29.72F WCI  34
MONTROSE       NOT AVBL
CORTEZ         CLOUDY    51  32  48 S22G29    29.80F
PAGE, AZ       PTSUNNY   43  40  89 E7        29.76F
GRAND CANYON   HVY SNOW  31  29  92 SW13      29.82F VSB 1/4 WCI  21
KINGMAN        PTSUNNY   48  41  76 SW23      29.85F
FLAGSTAFF      SNOW      30  28  92 SW12      29.85R VSB 1/4 WCI  20

$$

REGIONAL REPORTS    NEVADA/IDAHO/WYOMING

CITY           SKY/WX    TMP DP  RH WIND       PRES   REMARKS
LAS VEGAS, NV  PTSUNNY   56  36  47 SW22G30   29.75F
ELY            CLOUDY    33  27  78 NE8       29.67F WCI  26
ELKO           PTSUNNY   44  21  40 NW7       29.68F
POCATELLO, ID  PTSUNNY   39  18  42 NE5       29.71F
BURLEY         PTSUNNY   45  19  35 NE9       29.69F
EVANSTON, WY   CLOUDY    29  23  78 E7        29.67F WCI  22
ROCK SPRINGS   LGT SNOW  31  29  92 NE5       29.68F FOG     WCI  26
KEMMERER       LGT SNOW  32  27  80 E6        29.69F WCI  26

$$



USA.gov is the U.S. government's official web portal to all federal, state and local government web resources and services.